Time,TemperatureF,DewpointF,PressureIn,WindDirection,WindDirectionDegrees,WindSpeedMPH,WindSpeedGustMPH,Humidity,HourlyPrecipIn,Conditions,Clouds,dailyrainin,SolarRadiationWatts/m^2,SoftwareType,DateUTC
2013-09-06 00:11:00,58.0,44.0,-100.00,NW,316,0.0,5.0,59,0.00,,,0.01,0.000000,,2013-09-06 06:11:00,
2013-09-06 00:21:00,58.0,44.0,-100.00,NW,316,0.0,5.0,59,0.00,,,0.01,0.000000,,2013-09-06 06:21:00,
2013-09-06 00:32:00,58.0,44.0,-100.00,NW,316,0.0,5.0,59,0.00,,,0.01,0.000000,,2013-09-06 06:32:00,
2013-09-06 00:42:00,58.0,44.0,-100.00,NW,316,0.0,5.0,59,0.00,,,0.01,0.000000,,2013-09-06 06:42:00,
2013-09-06 01:11:00,58.0,44.0,-100.00,NE,56,0.0,7.0,60,0.00,,,0.01,0.000000,,2013-09-06 07:11:00,
2013-09-06 01:23:00,58.0,44.0,-100.00,NE,56,0.0,7.0,60,0.00,,,0.01,0.000000,,2013-09-06 07:23:00,
2013-09-06 01:32:00,58.0,44.0,-100.00,NE,56,0.0,7.0,60,0.00,,,0.01,0.000000,,2013-09-06 07:32:00,
2013-09-06 01:42:00,58.0,44.0,-100.00,NE,56,0.0,7.0,60,0.00,,,0.01,0.000000,,2013-09-06 07:42:00,
2013-09-06 02:12:00,56.0,42.0,-100.00,SW,215,5.0,8.0,60,0.00,,,0.01,0.000000,,2013-09-06 08:12:00,
2013-09-06 02:22:00,56.0,42.0,-100.00,SW,215,5.0,8.0,60,0.00,,,0.01,0.000000,,2013-09-06 08:22:00,
2013-09-06 02:32:00,56.0,42.0,-100.00,SW,215,5.0,8.0,60,0.00,,,0.01,0.000000,,2013-09-06 08:32:00,
2013-09-06 02:42:00,56.0,42.0,-100.00,SW,215,5.0,8.0,60,0.00,,,0.01,0.000000,,2013-09-06 08:42:00,
2013-09-06 03:11:00,54.0,42.0,-100.00,South,177,0.0,5.0,63,0.00,,,0.01,0.000000,,2013-09-06 09:11:00,
2013-09-06 03:22:00,54.0,42.0,-100.00,South,177,0.0,5.0,63,0.00,,,0.01,0.000000,,2013-09-06 09:22:00,
2013-09-06 03:33:00,54.0,42.0,-100.00,South,177,0.0,5.0,63,0.00,,,0.01,0.000000,,2013-09-06 09:33:00,
2013-09-06 03:43:00,54.0,42.0,-100.00,South,177,0.0,5.0,63,0.00,,,0.01,0.000000,,2013-09-06 09:43:00,
2013-09-06 04:12:00,54.0,43.0,-100.00,SSE,168,0.0,7.0,66,0.00,,,0.01,0.000000,,2013-09-06 10:12:00,
2013-09-06 04:23:00,54.0,43.0,-100.00,SSE,168,0.0,7.0,66,0.00,,,0.01,0.000000,,2013-09-06 10:23:00,
2013-09-06 04:32:00,54.0,43.0,-100.00,SSE,168,0.0,7.0,66,0.00,,,0.01,0.000000,,2013-09-06 10:32:00,
2013-09-06 04:42:00,54.0,43.0,-100.00,SSE,168,0.0,7.0,66,0.00,,,0.01,0.000000,,2013-09-06 10:42:00,
2013-09-06 05:12:00,53.0,42.0,-100.00,NNE,26,3.0,5.0,66,0.00,,,0.01,0.000000,,2013-09-06 11:12:00,
2013-09-06 05:22:00,53.0,42.0,-100.00,NNE,26,3.0,5.0,66,0.00,,,0.01,0.000000,,2013-09-06 11:22:00,
2013-09-06 05:33:00,53.0,42.0,-100.00,NNE,26,3.0,5.0,66,0.00,,,0.01,0.000000,,2013-09-06 11:33:00,
2013-09-06 05:42:00,53.0,42.0,-100.00,NNE,26,3.0,5.0,66,0.00,,,0.01,0.000000,,2013-09-06 11:42:00,
2013-09-06 06:12:00,50.0,42.0,-100.00,ESE,123,0.0,5.0,73,0.00,,,0.01,0.000000,,2013-09-06 12:12:00,
2013-09-06 06:21:00,50.0,42.0,-100.00,ESE,123,0.0,5.0,73,0.00,,,0.01,0.000000,,2013-09-06 12:21:00,
2013-09-06 06:32:00,50.0,42.0,-100.00,ESE,123,0.0,5.0,73,0.00,,,0.01,0.000000,,2013-09-06 12:32:00,
2013-09-06 06:42:00,50.0,42.0,-100.00,ESE,123,0.0,5.0,73,0.00,,,0.01,0.000000,,2013-09-06 12:42:00,
2013-09-06 07:11:00,52.0,43.0,-100.00,NE,53,0.0,4.0,70,0.00,,,0.01,0.000000,,2013-09-06 13:11:00,
2013-09-06 07:22:00,52.0,43.0,-100.00,NE,53,0.0,4.0,70,0.00,,,0.01,0.000000,,2013-09-06 13:22:00,
2013-09-06 07:32:00,52.0,43.0,-100.00,NE,53,0.0,4.0,70,0.00,,,0.01,0.000000,,2013-09-06 13:32:00,
2013-09-06 07:42:00,52.0,43.0,-100.00,NE,53,0.0,4.0,70,0.00,,,0.01,0.000000,,2013-09-06 13:42:00,
2013-09-06 08:11:00,54.0,41.0,-100.00,SSW,213,4.0,6.0,61,0.00,,,0.01,75.000000,,2013-09-06 14:11:00,
2013-09-06 08:22:00,54.0,41.0,-100.00,SSW,213,4.0,6.0,61,0.00,,,0.01,75.000000,,2013-09-06 14:22:00,
2013-09-06 08:32:00,54.0,41.0,-100.00,SSW,213,4.0,6.0,61,0.00,,,0.01,75.000000,,2013-09-06 14:32:00,
2013-09-06 08:42:00,54.0,41.0,-100.00,SSW,213,4.0,6.0,61,0.00,,,0.01,75.000000,,2013-09-06 14:42:00,
2013-09-06 09:11:00,56.0,40.0,-100.00,SW,234,4.0,6.0,55,0.00,,,0.01,298.000000,,2013-09-06 15:11:00,
2013-09-06 09:22:00,56.0,40.0,-100.00,SW,234,4.0,6.0,55,0.00,,,0.01,298.000000,,2013-09-06 15:22:00,
2013-09-06 09:34:00,56.0,40.0,-100.00,SW,234,4.0,6.0,55,0.00,,,0.01,298.000000,,2013-09-06 15:34:00,
2013-09-06 09:43:00,56.0,40.0,-100.00,SW,234,4.0,6.0,55,0.00,,,0.01,298.000000,,2013-09-06 15:43:00,
2013-09-06 10:13:00,63.0,39.0,-100.00,SW,215,3.0,6.0,41,0.00,,,0.01,514.000000,,2013-09-06 16:13:00,
2013-09-06 10:24:00,63.0,39.0,-100.00,SW,215,3.0,6.0,41,0.00,,,0.01,514.000000,,2013-09-06 16:24:00,
2013-09-06 10:33:00,63.0,39.0,-100.00,SW,215,3.0,6.0,41,0.00,,,0.01,514.000000,,2013-09-06 16:33:00,
2013-09-06 10:42:00,63.0,39.0,-100.00,SW,215,3.0,6.0,41,0.00,,,0.01,514.000000,,2013-09-06 16:42:00,
2013-09-06 11:43:00,74.0,42.0,-100.00,SSW,196,1.0,7.0,32,0.00,,,0.01,759.000000,,2013-09-06 17:43:00,
2013-09-06 12:12:00,76.0,37.0,-100.00,NNW,336,2.0,9.0,24,0.00,,,0.01,942.000000,,2013-09-06 18:12:00,
2013-09-06 12:22:00,76.0,37.0,-100.00,NNW,336,2.0,9.0,24,0.00,,,0.01,942.000000,,2013-09-06 18:22:00,
2013-09-06 12:32:00,76.0,37.0,-100.00,NNW,336,2.0,9.0,24,0.00,,,0.01,942.000000,,2013-09-06 18:32:00,
2013-09-06 12:42:00,76.0,37.0,-100.00,NNW,336,2.0,9.0,24,0.00,,,0.01,942.000000,,2013-09-06 18:42:00,
2013-09-06 13:12:00,77.0,36.0,-100.00,NNE,23,4.0,10.0,23,0.00,,,0.01,1044.000000,,2013-09-06 19:12:00,
2013-09-06 13:22:00,77.0,36.0,-100.00,NNE,23,4.0,10.0,23,0.00,,,0.01,1044.000000,,2013-09-06 19:22:00,
2013-09-06 13:32:00,77.0,36.0,-100.00,NNE,23,4.0,10.0,23,0.00,,,0.01,1044.000000,,2013-09-06 19:32:00,
2013-09-06 13:42:00,77.0,36.0,-100.00,NNE,23,4.0,10.0,23,0.00,,,0.01,1044.000000,,2013-09-06 19:42:00,
2013-09-06 14:11:00,79.0,37.0,-100.00,West,278,2.0,9.0,22,0.00,,,0.01,987.000000,,2013-09-06 20:11:00,
2013-09-06 14:23:00,79.0,37.0,-100.00,West,278,2.0,9.0,22,0.00,,,0.01,987.000000,,2013-09-06 20:23:00,
2013-09-06 14:32:00,79.0,37.0,-100.00,West,278,2.0,9.0,22,0.00,,,0.01,987.000000,,2013-09-06 20:32:00,
2013-09-06 14:42:00,79.0,37.0,-100.00,West,278,2.0,9.0,22,0.00,,,0.01,987.000000,,2013-09-06 20:42:00,
2013-09-06 15:12:00,81.0,37.0,-100.00,ENE,60,5.0,10.0,21,0.00,,,0.01,906.000000,,2013-09-06 21:12:00,
2013-09-06 15:22:00,81.0,37.0,-100.00,ENE,60,5.0,10.0,21,0.00,,,0.01,906.000000,,2013-09-06 21:22:00,
2013-09-06 15:34:00,81.0,37.0,-100.00,ENE,60,5.0,10.0,21,0.00,,,0.01,906.000000,,2013-09-06 21:34:00,
2013-09-06 15:43:00,81.0,37.0,-100.00,ENE,60,5.0,10.0,21,0.00,,,0.01,906.000000,,2013-09-06 21:43:00,
2013-09-06 16:13:00,81.0,33.0,-100.00,East,81,6.0,18.0,18,0.00,,,0.01,930.000000,,2013-09-06 22:13:00,
2013-09-06 16:23:00,81.0,33.0,-100.00,East,81,6.0,18.0,18,0.00,,,0.01,930.000000,,2013-09-06 22:23:00,
2013-09-06 16:33:00,81.0,33.0,-100.00,East,81,6.0,18.0,18,0.00,,,0.01,930.000000,,2013-09-06 22:33:00,
2013-09-06 16:44:00,81.0,33.0,-100.00,East,81,6.0,18.0,18,0.00,,,0.01,930.000000,,2013-09-06 22:44:00,
2013-09-06 18:12:00,69.0,40.0,-100.00,West,271,11.0,41.0,35,-99.99,,,0.02,185.000000,,2013-09-07 00:12:00,
2013-09-06 18:22:00,69.0,40.0,-100.00,West,271,11.0,41.0,35,-99.99,,,0.02,185.000000,,2013-09-07 00:22:00,
2013-09-06 18:32:00,69.0,40.0,-100.00,West,271,11.0,41.0,35,-99.99,,,0.02,185.000000,,2013-09-07 00:32:00,
2013-09-06 18:42:00,69.0,40.0,-100.00,West,271,11.0,41.0,35,-99.99,,,0.02,185.000000,,2013-09-07 00:42:00,
2013-09-06 19:12:00,62.0,39.0,-100.00,WSW,238,14.0,22.0,43,0.00,,,0.02,38.000000,,2013-09-07 01:12:00,
2013-09-06 19:21:00,62.0,39.0,-100.00,WSW,238,14.0,22.0,43,0.00,,,0.02,38.000000,,2013-09-07 01:21:00,
2013-09-06 19:32:00,62.0,39.0,-100.00,WSW,238,14.0,22.0,43,0.00,,,0.02,38.000000,,2013-09-07 01:32:00,
2013-09-06 19:42:00,62.0,39.0,-100.00,WSW,238,14.0,22.0,43,0.00,,,0.02,38.000000,,2013-09-07 01:42:00,
2013-09-06 20:12:00,62.0,41.0,-100.00,West,266,10.0,21.0,46,0.00,,,0.02,1.000000,,2013-09-07 02:12:00,
2013-09-06 20:23:00,62.0,41.0,-100.00,West,266,10.0,21.0,46,0.00,,,0.02,1.000000,,2013-09-07 02:23:00,
2013-09-06 20:32:00,62.0,41.0,-100.00,West,266,10.0,21.0,46,0.00,,,0.02,1.000000,,2013-09-07 02:32:00,
2013-09-06 20:42:00,62.0,41.0,-100.00,West,266,10.0,21.0,46,0.00,,,0.02,1.000000,,2013-09-07 02:42:00,
2013-09-06 21:11:00,60.0,41.0,-100.00,West,264,7.0,14.0,49,0.00,,,0.02,0.000000,,2013-09-07 03:11:00,
2013-09-06 21:23:00,60.0,41.0,-100.00,West,264,7.0,14.0,49,0.00,,,0.02,0.000000,,2013-09-07 03:23:00,
2013-09-06 21:34:00,60.0,41.0,-100.00,West,264,7.0,14.0,49,0.00,,,0.02,0.000000,,2013-09-07 03:34:00,
2013-09-06 21:44:00,60.0,41.0,-100.00,West,264,7.0,14.0,49,0.00,,,0.02,0.000000,,2013-09-07 03:44:00,
2013-09-06 22:23:00,58.0,38.0,-100.00,SSW,194,0.0,7.0,48,0.00,,,0.02,0.000000,,2013-09-07 04:23:00,
2013-09-06 22:34:00,58.0,38.0,-100.00,SSW,194,0.0,7.0,48,0.00,,,0.02,0.000000,,2013-09-07 04:34:00,
2013-09-06 22:43:00,58.0,38.0,-100.00,SSW,194,0.0,7.0,48,0.00,,,0.02,0.000000,,2013-09-07 04:43:00,
2013-09-06 23:13:00,56.0,39.0,-100.00,SW,215,3.0,6.0,53,0.00,,,0.02,0.000000,,2013-09-07 05:13:00,
2013-09-06 23:23:00,56.0,39.0,-100.00,SW,215,3.0,6.0,53,0.00,,,0.02,0.000000,,2013-09-07 05:23:00,
2013-09-06 23:33:00,56.0,39.0,-100.00,SW,215,3.0,6.0,53,0.00,,,0.02,0.000000,,2013-09-07 05:33:00,
2013-09-06 23:42:00,56.0,39.0,-100.00,SW,215,3.0,6.0,53,0.00,,,0.02,0.000000,,2013-09-07 05:42:00,